Regional Weather Roundup
Issued by NWS

Home | Current Version | Previous Version | Graphics & Text | Print | Product List | Glossary On
Versions: 1 2 3 4 5 6 7 8 9 10 11 12 13 14 15 16 17 18 19 20 21 22 23 24 25 26 27 28 29 30 31 32 33 34 35 36 37 38 39 40 41 42 43 44 45 46 47 48 49 50
000
ASUS43 KFSD 261002
RWRSD

WEATHER ROUNDUP FOR SOUTH DAKOTA
NATIONAL WEATHER SERVICE SIOUX FALLS SD
500 AM CDT TUE SEP 26 2017

NOTE: "FAIR" INDICATES FEW OR NO CLOUDS BELOW 12,000 FEET WITH NO
SIGNIFICANT WEATHER AND/OR OBSTRUCTIONS TO VISIBILITY.


SDZ001>005-009-010-012>017-261100-
NORTHWEST AND NORTH CENTRAL SOUTH DAKOTA

CITY           SKY/WX    TMP DP  RH WIND       PRES   REMARKS
FAITH            N/A     45  45 100 S9        30.09S
MOBRIDGE       MOCLDY    46  43  89 CALM      30.07F
$$

SDZ012>016-024>037-041>051-057-063-072>074-261100-
SOUTHWEST AND SOUTH CENTRAL SOUTH DAKOTA

CITY           SKY/WX    TMP DP  RH WIND       PRES   REMARKS
RAPID CTY ARPT NOT AVBL
PIERRE         CLOUDY    47  44  90 W6        30.09S
CUSTER         LGT RAIN  39  36  89 W3        30.11R
ELLSWORTH AFB  CLOUDY    45  45 100 SW7       30.08S
PHILIP         PTCLDY    43  43 100 W3        30.11F
PINE RIDGE     CLOUDY    45  42  89 S6        30.11F
SPEARFISH      FAIR      37  37 100 W5        30.09S
WINNER         FAIR      44  43  96 W6        30.11R FOG
$$

SDZ004>011-016>023-039-040-261100-
NORTHEAST SOUTH DAKOTA

CITY           SKY/WX    TMP DP  RH WIND       PRES   REMARKS
ABERDEEN       CLOUDY    48  48 100 N10       30.06F FOG
WATERTOWN      CLOUDY    48  48 100 NW9       30.01S
BROOKINGS      CLOUDY    49  48  97 NW6       30.02
SISSETON         N/A     50  50 100 NW7       30.03R
$$

SDZ017-020-022-023-036>040-048>070-261100-
SOUTHEAST SOUTH DAKOTA

CITY           SKY/WX    TMP DP  RH WIND       PRES   REMARKS
SIOUX FALLS    LGT RAIN  51  51 100 NW7       30.03R
HURON          CLOUDY    48  48 100 NW8       30.07S
CHAMBERLAIN    CLOUDY    47  47 100 NW3       30.10S
MITCHELL       CLOUDY    50  48  93 NW8       30.07S
YANKTON        CLOUDY    50  49  96 NW10      30.04F
$$

ABBREVIATIONS USED IN REMARKS
   TC - TEMPERATURE IN CELSIUS
  WCI - WIND CHILL INDEX
   HX - HEAT INDEX
  VSB - VISIBILITY





USA.gov is the U.S. government's official web portal to all federal, state and local government web resources and services.